SCP
0 0 0 0 0 0 0 0 0 0 0 0 0 0 0 0 0 0 0 0 0 0 0 0 0 0 0 0 0 0 0 0 0 0 0 0 0 0 0 0 0 0 0 0
0 0 0 0 0 0 0 0 0 0 0 0 0 0 0 0 0 0 0 0 0 0 0 0 0 0 0 0 0 0 0 0 0 0 0 0 0 0 0 0 0 0 0 0
0 0 0 0 0 0 0 0 0 0 0 0 0 0 0 0 0 0 0 0 0 0 0 0 0 0 0 0 0 0 0 0 0 -0 0 0 0 0 0 0 0 0 0 0
0 0 0 0 0 0 0 0 0 0 0 0 0 0 0 0 0 0 0 0 0 0 0 0 0 0 0 0 0 0 0 -0 -0 -0 0 0 0 0 0 0 0 0 0 0
0 0 0 0 0 0 0 0 0 0 0 0 0 0 0 0 0 0 0 0 0 0 0 0 0 0 0 0 0 -0 -0 -0 -0 -0 -0 0 0 0 0 0 0 0 0 0
0 0 0 0 0 0 0 0 0 0 0 0 0 0 0 0 0 0 0 0 0 0 0 0 0 0 0 0 0 -0 -0 -0 -0 -0 -0 -0 0 0 0 0 0 0 0 0
0 0 0 0 0 0 0 0 0 0 0 0 0 0 0 0 0 0 0 0 0 0 0 0 0 0 0 0 -0 -0 -0 -0 -0 -0 -0 -0 -0 0 0 0 0 0 0 0
0 0 0 0 0 0 0 0 0 0 0 0 0 0 0 0 0 0 0 0 0 0 0 0 0 0 0 0 -0 -0 -0 -0 -0 -0 -0 -0 -0 0 0 0 0 0 0 0
0 0 0 0 0 0 0 0 0 0 0 0 0 0 0 0 0 0 0 0 0 0 0 0 0 0 0 0 -0 -0 -0 -0 -0 -0 -0 -0 -0 -0 0 0 0 0 0 0
0 0 0 0 0 0 0 0 0 0 0 0 0 0 0 0 0 0 0 0 0 0 0 0 0 0 0 0 -0 -0 -0 -0 -0 -0 -0 -0 -0 -0 0 0 0 0 0 0
0 0 0 0 0 0 0 0 0 0 0 0 0 0 0 0 0 0 0 0 0 0 0 0 0 0 0 0 -0 -0 -0 -0 -0 -0 -0 -0 -0 0 0 0 0 0 0 0
0 0 0 0 0 0 0 0 0 0 0 0 0 0 0 0 0 0 0 0 0 0 0 0 0 0 0 0 0 -0 -0 -0 -0 -0 -0 -0 -0 -0 0 -0 -0 0 0 0
0 0 0 0 0 0 0 0 0 0 0 0 0 0 0 0 0 0 0 0 0 0 0 0 0 0 0 0 0 -0 -0 -0 -0 -0 -0 -0 -0 0 0 -0 0 0 0 0
0 0 0 0 0 0 0 0 0 0 0 0 0 0 0 0 0 0 0 0 0 0 0 0 0 0 0 0 0 0 0 0 -0 -0 -0 -0 0 -0 0 -0 0 -0 -0 0
0 0 0 0 0 0 0 0 0 0 0 0 0 -0 -0 0 0 0 0 0 0 0 0 0 0 0 0 0 0 0 0 0 0 0 0 0 0 0 0 -0 -0 -0 -0 -0
0 0 0 0 0 0 0 0 0 0 0 0 0 -0 0 0 0 0 -0 -0 -0 0 0 0 0 0 0 0 0 0 0 0 0 0 0 0 0 0 0 -0 -0 -0 -0 -0
0 0 0 0 0 0 0 0 0 0 0 0 0 -0 0 0 0 -0 -0 -0 -0 -0 -0 -0 0 0 0 0 0 0 0 0 0 0 0 0 0 0 0 -0 -0 -0 -0 -0
0 0 0 0 0 0 0 0 0 0 0 0 0 -0 0 0 0 0 -0 -0 -0 -0 -0 -0 0 0 0 0 0 0 0 0 0 0 0 0 0 0 0 0 -0 -0 -0 -0
0 0 0 0 0 0 0 0 0 0 0 0 0 -0 0 0 0 0 -0 0 -0 -0 -0 -0 -0 0 0 0 0 0 0 0 0 0 0 0 0 0 0 0 0 -0 -0 -0
0 0 0 0 0 0 0 0 0 0 0 0 0 0 0 0 0 0 0 0 0 -0 -0 0 0 0 0 0 0 0 0 0 0 0 0 0 0 0 0 0 0 0 -0 -0
0 0 0 0 0 0 0 0 0 0 0 0 0 0 0 0 0 0 0 0 0 0 0 0 0 0 0 0 0 0 0 0 0 0 0 0 0 0 0 0 0 0 -0 -0
0 0 0 0 0 0 0 0 0 0 0 0 -0 0 0 0 0 0 0 0 0 0 0 0 0 0 0 0 0 0 0 0 0 0 0 0 0 0 0 0 0 0 -0 -0
0 0 0 0 0 0 0 0 0 0 0 0 0 0 0 0 0 0 0 0 0 0 0 0 0 0 0 0 0 0 0 0 0 0 0 0 0 0 0 0 0 0 0 -0
0 0 0 0 0 0 0 0 0 0 0 0 0 0 0 0 0 0 0 0 0 0 0 0 0 0 0 0 0 0 0 0 0 0 0 0 0 0 0 0 0 0 0 0
0 0 0 0 0 0 0 0 0 0 0 0 0 0 0 0 0 0 0 0 0 0 0 0 0 0 0 0 0 0 0 0 0 0 0 0 0 0 0 0 0 0 0 -0
0 0 0 0 0 0 0 0 0 0 0 0 0 0 0 0 0 0 0 0 0 0 0 0 0 0 0 0 0 0 0 0 0 0 0 0 0 0 0 0 0 0 0 0
Wind_Speed_500mb
4 4 11 17 18 7 9 13 9 11 12 11 19 19 18 43 35 27 25 18 12 6 1 8 14 20 26 31 37 47 55 60 60 57 55 53 57 62 65 58 55 49 53 37
6 8 8 8 5 3 5 8 2 8 9 8 13 25 25 30 37 40 30 26 19 13 6 4 7 16 23 30 38 42 53 58 62 66 62 60 60 66 67 67 61 62 59 51
11 4 4 5 3 4 7 10 4 4 9 11 11 15 17 16 32 36 25 26 23 19 13 6 4 14 19 30 40 44 46 50 55 55 56 59 60 56 56 69 74 77 74 73
2 9 3 4 5 9 9 9 3 14 8 6 9 9 5 18 17 22 31 25 28 23 16 11 13 16 21 29 34 40 46 50 50 54 59 64 65 65 64 65 67 67 70 72
7 6 2 4 5 7 2 4 4 7 8 7 9 2 11 17 17 20 36 42 37 28 21 19 25 22 22 24 28 32 35 39 42 46 48 53 56 57 57 60 60 62 63 63
5 3 8 7 5 4 12 6 7 3 3 4 18 16 9 13 16 27 42 50 44 37 29 31 30 19 19 23 28 30 32 34 35 37 40 43 45 47 48 52 57 60 61 63
2 5 8 2 6 7 2 5 1 5 2 11 12 10 14 8 13 22 46 55 50 40 38 40 29 26 24 24 25 25 25 27 31 34 36 40 43 47 52 54 56 57 58 61
8 9 14 16 3 5 8 2 7 12 8 7 8 12 12 9 10 28 56 59 52 47 44 41 37 31 26 24 20 19 19 23 28 32 36 38 40 44 47 49 52 55 57 59
9 6 5 5 4 4 6 11 3 3 2 3 11 12 2 1 5 36 49 57 56 54 51 48 43 34 30 24 18 15 16 22 27 28 30 32 35 39 43 45 47 51 52 53
8 4 3 4 5 4 5 10 4 3 4 10 10 11 12 16 21 28 36 50 56 58 56 51 47 39 34 25 19 14 15 20 23 23 25 29 34 37 39 40 45 47 48 50
11 6 6 8 15 16 9 5 5 4 6 7 5 10 3 21 39 43 47 59 60 65 65 58 51 43 36 28 20 15 15 18 19 20 21 27 31 33 35 40 41 46 46 49
5 2 7 17 7 3 10 20 17 9 11 9 2 19 5 3 33 46 51 56 62 69 68 63 56 48 39 31 22 16 15 15 15 16 19 23 28 31 33 38 40 46 48 50
9 8 3 5 0 3 9 12 10 14 5 17 13 9 3 5 25 46 55 61 64 68 67 63 59 53 44 35 26 19 16 14 13 13 15 21 26 27 32 36 41 44 43 45
11 4 10 2 3 8 10 18 30 16 15 25 38 28 9 9 17 35 49 62 65 69 72 68 67 60 51 40 31 24 21 17 13 13 13 19 22 25 29 36 39 39 40 41
7 7 5 26 17 9 10 13 29 35 46 32 36 48 44 24 26 50 59 61 65 69 75 77 76 69 61 49 39 30 26 21 16 14 12 17 20 24 28 34 36 37 38 42
10 5 1 9 15 16 31 24 24 44 47 42 48 63 40 39 52 46 68 76 77 76 80 82 84 76 69 59 46 35 30 26 21 16 14 17 20 24 27 32 32 35 38 41
17 9 5 7 7 9 22 40 47 44 33 48 36 56 6 25 26 57 72 82 88 88 90 96 96 87 78 67 54 43 36 30 25 20 18 19 24 26 27 28 30 33 37 41
16 13 8 2 5 11 11 7 27 45 50 45 44 46 19 34 36 70 87 94 89 86 87 94 99 92 82 72 61 48 41 36 30 25 23 22 27 27 26 30 28 29 36 42
9 12 7 7 9 19 32 11 13 16 18 46 55 61 50 42 34 32 80 87 93 98 105 110 107 99 90 79 67 56 47 41 35 30 27 26 30 29 27 30 31 27 32 40
11 6 11 6 9 14 4 4 5 3 13 24 39 43 27 35 18 23 60 74 81 85 92 90 98 99 93 86 76 64 54 47 41 35 31 30 33 33 27 30 30 30 29 36
8 6 24 12 10 17 16 16 16 7 9 14 14 22 27 21 36 19 38 67 76 84 90 93 98 103 101 93 81 70 59 53 45 40 35 35 35 34 31 30 28 28 28 31
21 18 11 8 11 25 25 14 15 9 5 5 8 13 21 39 15 40 17 53 75 81 90 96 100 102 103 95 87 78 67 58 51 45 40 41 37 36 31 29 30 27 26 29
12 16 15 25 19 6 49 23 51 14 4 9 17 19 16 28 33 24 38 40 65 78 90 96 98 101 103 98 92 83 70 64 58 52 45 45 42 38 34 28 28 26 25 25
10 16 7 7 28 33 48 61 47 26 31 36 30 24 16 20 30 35 29 37 56 74 88 93 97 100 107 104 95 82 73 68 62 56 51 50 45 41 35 31 26 23 24 21
14 22 18 14 20 13 24 63 68 55 59 56 52 36 27 23 24 29 36 40 51 69 83 92 97 96 106 109 99 87 78 73 68 60 55 56 50 44 40 34 27 23 21 18
18 17 21 28 34 22 32 51 46 58 61 69 68 59 45 38 30 28 36 41 54 65 78 91 93 93 103 111 103 92 82 77 72 67 62 62 57 51 43 37 32 26 20 17
Wind_Direction_500mb
132 180 206 206 218 28 320 199 218 103 141 179 235 262 236 186 196 212 204 190 164 152 89 42 15 22 42 44 44 44 45 42 39 39 39 38 41 40 34 33 22 21 30 31
100 229 23 4 106 101 287 286 126 36 129 190 276 253 235 188 187 194 201 187 165 169 168 78 36 42 45 52 51 48 51 48 48 48 49 49 45 47 43 43 41 44 43 41
157 141 71 6 75 174 236 244 193 80 156 241 306 273 223 207 161 185 193 174 167 180 178 158 90 69 62 66 58 56 59 58 54 52 51 51 51 49 47 48 44 46 46 48
208 89 123 112 214 196 223 6 360 128 158 251 169 273 210 169 158 174 168 178 179 182 177 159 126 101 86 81 77 70 64 63 63 59 56 55 55 51 48 48 48 46 46 47
216 106 71 141 116 3 148 292 123 159 216 44 203 305 250 140 203 190 178 188 180 177 180 156 135 122 105 94 82 75 68 63 58 57 55 56 54 51 48 49 50 49 47 45
97 94 54 33 75 330 157 95 62 317 207 276 207 181 238 191 214 185 179 182 175 179 173 155 142 141 128 110 95 82 73 65 60 55 54 52 52 51 49 45 43 41 39 38
124 122 108 150 97 4 342 147 356 332 319 233 348 200 248 165 172 177 172 167 173 176 175 162 155 154 138 121 105 89 77 67 60 56 51 47 45 44 42 38 36 36 35 35
168 286 176 179 181 172 188 278 192 227 205 229 30 231 252 8 106 162 165 164 171 173 176 170 169 162 146 131 111 92 79 69 62 58 54 49 45 42 40 38 36 35 33 32
157 222 87 359 98 87 198 219 349 261 313 19 213 251 232 173 178 143 153 162 173 175 178 179 174 168 156 143 120 96 82 73 67 61 58 49 44 43 41 37 36 36 35 33
177 171 235 104 66 222 230 331 138 259 259 257 257 226 232 194 187 166 167 173 176 178 180 184 179 174 166 158 136 114 99 84 75 64 54 51 47 41 43 42 42 40 38 33
111 188 136 143 211 174 157 217 210 300 233 234 278 255 338 184 185 182 178 179 180 181 181 185 184 179 175 171 151 132 114 95 82 68 57 53 51 47 47 47 43 41 36 33
128 215 196 211 122 342 218 220 183 208 231 228 221 256 54 46 185 181 180 182 183 184 184 188 188 183 181 179 164 144 126 108 93 75 60 57 58 55 51 48 44 42 37 37
170 209 195 219 352 163 216 196 223 231 326 240 231 256 11 352 168 188 180 182 184 184 186 190 193 188 185 185 177 156 145 131 113 86 68 64 65 58 54 53 48 46 41 39
63 285 247 245 25 110 197 200 207 201 223 241 244 267 221 206 184 188 188 186 185 185 189 192 195 192 189 189 187 171 161 153 131 96 74 72 69 61 60 59 55 51 44 40
155 236 252 285 282 220 238 209 203 210 232 231 250 250 247 230 197 196 186 184 188 189 191 196 197 194 191 192 190 184 170 163 144 119 96 89 76 69 68 67 60 53 47 43
175 218 275 270 233 228 261 235 215 219 229 240 250 262 258 247 224 179 186 186 191 194 194 196 201 196 195 194 193 188 179 171 154 141 122 106 91 83 75 73 65 58 52 47
165 177 190 268 2 324 279 228 222 228 225 222 224 239 197 220 197 189 189 191 196 197 194 197 202 199 196 195 193 192 183 175 166 157 141 126 108 96 88 78 69 64 57 50
168 166 161 249 18 251 251 208 218 229 239 232 244 247 224 232 231 208 200 195 199 198 195 198 202 201 199 196 192 192 187 180 173 165 152 137 120 108 100 89 76 67 61 54
187 167 176 193 199 299 305 234 183 191 257 223 236 249 234 238 247 223 208 211 209 204 206 206 205 200 198 196 194 191 189 185 177 172 160 147 129 118 110 98 86 72 63 58
180 220 198 144 195 237 269 187 164 149 290 233 225 242 223 185 223 231 209 215 212 212 204 197 203 200 199 196 195 191 190 189 183 175 166 152 136 126 119 105 92 80 68 62
153 169 205 194 230 276 243 172 155 89 252 319 347 259 205 195 218 206 220 219 220 211 204 202 202 201 200 198 194 192 191 191 185 176 169 156 145 135 127 114 101 87 75 66
169 164 186 185 215 267 180 96 191 203 212 316 342 291 239 219 215 213 206 214 207 202 198 199 197 200 201 198 195 194 192 189 185 177 172 161 152 142 135 125 112 99 84 73
204 191 176 190 213 237 187 221 208 183 123 332 297 297 250 224 219 218 224 204 202 198 196 197 199 202 200 197 199 194 192 189 185 180 175 163 158 151 143 136 122 112 98 84
246 185 210 106 251 240 223 232 243 250 265 274 281 275 255 229 217 220 206 191 196 197 197 197 199 202 198 197 198 200 193 190 187 180 176 167 164 157 152 141 134 123 107 97
183 150 202 263 282 296 262 237 244 251 257 254 257 257 240 230 219 213 211 206 203 199 199 200 203 204 202 197 195 195 195 191 186 182 179 172 169 165 158 151 146 135 121 111
188 189 191 226 220 210 236 246 251 240 252 254 243 237 233 229 231 228 217 212 211 205 203 202 206 207 204 198 194 194 194 194 189 183 183 177 173 169 166 161 155 147 140 123
Wind_Speed_850mb
4 4 11 17 18 7 9 13 9 11 12 11 19 19 18 43 35 27 25 18 12 6 1 8 14 20 26 31 37 47 55 60 60 57 55 53 57 62 65 58 55 49 53 37
6 8 8 8 5 3 5 8 2 8 9 8 13 25 25 30 37 40 30 26 19 13 6 4 7 16 23 30 38 42 53 58 62 66 62 60 60 66 67 67 61 62 59 51
11 4 4 5 3 4 7 10 4 4 9 11 11 15 17 16 32 36 25 26 23 19 13 6 4 14 19 30 40 44 46 50 55 55 56 59 60 56 56 69 74 77 74 73
2 9 3 4 5 9 9 9 3 14 8 6 9 9 5 18 17 22 31 25 28 23 16 11 13 16 21 29 34 40 46 50 50 54 59 64 65 65 64 65 67 67 70 72
7 6 2 4 5 7 2 4 4 7 8 7 9 2 11 17 17 20 36 42 37 28 21 19 25 22 22 24 28 32 35 39 42 46 48 53 56 57 57 60 60 62 63 63
5 3 8 7 5 4 12 6 7 3 3 4 18 16 9 13 16 27 42 50 44 37 29 31 30 19 19 23 28 30 32 34 35 37 40 43 45 47 48 52 57 60 61 63
2 5 8 2 6 7 2 5 1 5 2 11 12 10 14 8 13 22 46 55 50 40 38 40 29 26 24 24 25 25 25 27 31 34 36 40 43 47 52 54 56 57 58 61
8 9 14 16 3 5 8 2 7 12 8 7 8 12 12 9 10 28 56 59 52 47 44 41 37 31 26 24 20 19 19 23 28 32 36 38 40 44 47 49 52 55 57 59
9 6 5 5 4 4 6 11 3 3 2 3 11 12 2 1 5 36 49 57 56 54 51 48 43 34 30 24 18 15 16 22 27 28 30 32 35 39 43 45 47 51 52 53
8 4 3 4 5 4 5 10 4 3 4 10 10 11 12 16 21 28 36 50 56 58 56 51 47 39 34 25 19 14 15 20 23 23 25 29 34 37 39 40 45 47 48 50
11 6 6 8 15 16 9 5 5 4 6 7 5 10 3 21 39 43 47 59 60 65 65 58 51 43 36 28 20 15 15 18 19 20 21 27 31 33 35 40 41 46 46 49
5 2 7 17 7 3 10 20 17 9 11 9 2 19 5 3 33 46 51 56 62 69 68 63 56 48 39 31 22 16 15 15 15 16 19 23 28 31 33 38 40 46 48 50
9 8 3 5 0 3 9 12 10 14 5 17 13 9 3 5 25 46 55 61 64 68 67 63 59 53 44 35 26 19 16 14 13 13 15 21 26 27 32 36 41 44 43 45
11 4 10 2 3 8 10 18 30 16 15 25 38 28 9 9 17 35 49 62 65 69 72 68 67 60 51 40 31 24 21 17 13 13 13 19 22 25 29 36 39 39 40 41
7 7 5 26 17 9 10 13 29 35 46 32 36 48 44 24 26 50 59 61 65 69 75 77 76 69 61 49 39 30 26 21 16 14 12 17 20 24 28 34 36 37 38 42
10 5 1 9 15 16 31 24 24 44 47 42 48 63 40 39 52 46 68 76 77 76 80 82 84 76 69 59 46 35 30 26 21 16 14 17 20 24 27 32 32 35 38 41
17 9 5 7 7 9 22 40 47 44 33 48 36 56 6 25 26 57 72 82 88 88 90 96 96 87 78 67 54 43 36 30 25 20 18 19 24 26 27 28 30 33 37 41
16 13 8 2 5 11 11 7 27 45 50 45 44 46 19 34 36 70 87 94 89 86 87 94 99 92 82 72 61 48 41 36 30 25 23 22 27 27 26 30 28 29 36 42
9 12 7 7 9 19 32 11 13 16 18 46 55 61 50 42 34 32 80 87 93 98 105 110 107 99 90 79 67 56 47 41 35 30 27 26 30 29 27 30 31 27 32 40
11 6 11 6 9 14 4 4 5 3 13 24 39 43 27 35 18 23 60 74 81 85 92 90 98 99 93 86 76 64 54 47 41 35 31 30 33 33 27 30 30 30 29 36
8 6 24 12 10 17 16 16 16 7 9 14 14 22 27 21 36 19 38 67 76 84 90 93 98 103 101 93 81 70 59 53 45 40 35 35 35 34 31 30 28 28 28 31
21 18 11 8 11 25 25 14 15 9 5 5 8 13 21 39 15 40 17 53 75 81 90 96 100 102 103 95 87 78 67 58 51 45 40 41 37 36 31 29 30 27 26 29
12 16 15 25 19 6 49 23 51 14 4 9 17 19 16 28 33 24 38 40 65 78 90 96 98 101 103 98 92 83 70 64 58 52 45 45 42 38 34 28 28 26 25 25
10 16 7 7 28 33 48 61 47 26 31 36 30 24 16 20 30 35 29 37 56 74 88 93 97 100 107 104 95 82 73 68 62 56 51 50 45 41 35 31 26 23 24 21
14 22 18 14 20 13 24 63 68 55 59 56 52 36 27 23 24 29 36 40 51 69 83 92 97 96 106 109 99 87 78 73 68 60 55 56 50 44 40 34 27 23 21 18
18 17 21 28 34 22 32 51 46 58 61 69 68 59 45 38 30 28 36 41 54 65 78 91 93 93 103 111 103 92 82 77 72 67 62 62 57 51 43 37 32 26 20 17
Wind_Direction_850mb
132 180 206 206 218 28 320 199 218 103 141 179 235 262 236 186 196 212 204 190 164 152 89 42 15 22 42 44 44 44 45 42 39 39 39 38 41 40 34 33 22 21 30 31
100 229 23 4 106 101 287 286 126 36 129 190 276 253 235 188 187 194 201 187 165 169 168 78 36 42 45 52 51 48 51 48 48 48 49 49 45 47 43 43 41 44 43 41
157 141 71 6 75 174 236 244 193 80 156 241 306 273 223 207 161 185 193 174 167 180 178 158 90 69 62 66 58 56 59 58 54 52 51 51 51 49 47 48 44 46 46 48
208 89 123 112 214 196 223 6 360 128 158 251 169 273 210 169 158 174 168 178 179 182 177 159 126 101 86 81 77 70 64 63 63 59 56 55 55 51 48 48 48 46 46 47
216 106 71 141 116 3 148 292 123 159 216 44 203 305 250 140 203 190 178 188 180 177 180 156 135 122 105 94 82 75 68 63 58 57 55 56 54 51 48 49 50 49 47 45
97 94 54 33 75 330 157 95 62 317 207 276 207 181 238 191 214 185 179 182 175 179 173 155 142 141 128 110 95 82 73 65 60 55 54 52 52 51 49 45 43 41 39 38
124 122 108 150 97 4 342 147 356 332 319 233 348 200 248 165 172 177 172 167 173 176 175 162 155 154 138 121 105 89 77 67 60 56 51 47 45 44 42 38 36 36 35 35
168 286 176 179 181 172 188 278 192 227 205 229 30 231 252 8 106 162 165 164 171 173 176 170 169 162 146 131 111 92 79 69 62 58 54 49 45 42 40 38 36 35 33 32
157 222 87 359 98 87 198 219 349 261 313 19 213 251 232 173 178 143 153 162 173 175 178 179 174 168 156 143 120 96 82 73 67 61 58 49 44 43 41 37 36 36 35 33
177 171 235 104 66 222 230 331 138 259 259 257 257 226 232 194 187 166 167 173 176 178 180 184 179 174 166 158 136 114 99 84 75 64 54 51 47 41 43 42 42 40 38 33
111 188 136 143 211 174 157 217 210 300 233 234 278 255 338 184 185 182 178 179 180 181 181 185 184 179 175 171 151 132 114 95 82 68 57 53 51 47 47 47 43 41 36 33
128 215 196 211 122 342 218 220 183 208 231 228 221 256 54 46 185 181 180 182 183 184 184 188 188 183 181 179 164 144 126 108 93 75 60 57 58 55 51 48 44 42 37 37
170 209 195 219 352 163 216 196 223 231 326 240 231 256 11 352 168 188 180 182 184 184 186 190 193 188 185 185 177 156 145 131 113 86 68 64 65 58 54 53 48 46 41 39
63 285 247 245 25 110 197 200 207 201 223 241 244 267 221 206 184 188 188 186 185 185 189 192 195 192 189 189 187 171 161 153 131 96 74 72 69 61 60 59 55 51 44 40
155 236 252 285 282 220 238 209 203 210 232 231 250 250 247 230 197 196 186 184 188 189 191 196 197 194 191 192 190 184 170 163 144 119 96 89 76 69 68 67 60 53 47 43
175 218 275 270 233 228 261 235 215 219 229 240 250 262 258 247 224 179 186 186 191 194 194 196 201 196 195 194 193 188 179 171 154 141 122 106 91 83 75 73 65 58 52 47
165 177 190 268 2 324 279 228 222 228 225 222 224 239 197 220 197 189 189 191 196 197 194 197 202 199 196 195 193 192 183 175 166 157 141 126 108 96 88 78 69 64 57 50
168 166 161 249 18 251 251 208 218 229 239 232 244 247 224 232 231 208 200 195 199 198 195 198 202 201 199 196 192 192 187 180 173 165 152 137 120 108 100 89 76 67 61 54
187 167 176 193 199 299 305 234 183 191 257 223 236 249 234 238 247 223 208 211 209 204 206 206 205 200 198 196 194 191 189 185 177 172 160 147 129 118 110 98 86 72 63 58
180 220 198 144 195 237 269 187 164 149 290 233 225 242 223 185 223 231 209 215 212 212 204 197 203 200 199 196 195 191 190 189 183 175 166 152 136 126 119 105 92 80 68 62
153 169 205 194 230 276 243 172 155 89 252 319 347 259 205 195 218 206 220 219 220 211 204 202 202 201 200 198 194 192 191 191 185 176 169 156 145 135 127 114 101 87 75 66
169 164 186 185 215 267 180 96 191 203 212 316 342 291 239 219 215 213 206 214 207 202 198 199 197 200 201 198 195 194 192 189 185 177 172 161 152 142 135 125 112 99 84 73
204 191 176 190 213 237 187 221 208 183 123 332 297 297 250 224 219 218 224 204 202 198 196 197 199 202 200 197 199 194 192 189 185 180 175 163 158 151 143 136 122 112 98 84
246 185 210 106 251 240 223 232 243 250 265 274 281 275 255 229 217 220 206 191 196 197 197 197 199 202 198 197 198 200 193 190 187 180 176 167 164 157 152 141 134 123 107 97
183 150 202 263 282 296 262 237 244 251 257 254 257 257 240 230 219 213 211 206 203 199 199 200 203 204 202 197 195 195 195 191 186 182 179 172 169 165 158 151 146 135 121 111
188 189 191 226 220 210 236 246 251 240 252 254 243 237 233 229 231 228 217 212 211 205 203 202 206 207 204 198 194 194 194 194 189 183 183 177 173 169 166 161 155 147 140 123